www.pogodaiklimat.ru

Погода и климат >> Архив погоды >> Индия >> Мадхья-Прадеш >> Сагар


ПОГОДА в Сагаре

  • Прогноз погоды в Сагаре
  • Монитор погоды в Сагаре

АРХИВ ПОГОДЫ в Сагаре

Время (UTC), дата Ветер
(напр.,м/с)
 
Видим.   Явления Облачность Т
(С)
Тd
(С)
f
(%)
Тe
(С)
Тes
(С)
Комфортность P
(гПа)
Po
(гПа)
Тmin
(С)
Tmax
(С)
R
(мм)
R24
(мм)
S
(см)
15 15.09 штиль 0 4000 м 10/8 420 м
[Frnb As trans]
+24.4 +24.1 98 +34 +34 очень
душно
1004.1 943.3
18 15.09 штиль 0 4000 м 10/8 420 м
[Frnb As trans]
+24.6 +24.3 98 +34 +34 очень
душно
1004.3 943.5
21 15.09 штиль 0 4000 м 10/8 360 м
[Frnb As trans]
+24.4 +24.1 98 +34 +34 очень
душно
1002.7 942.0
00 16.09 штиль 0 4000 м 10/8 420 м
[Frnb As trans]
+24.4 +24.4 100 +34 +34 очень
душно
1002.9 942.2
03 16.09 штиль 0 4000 м в посл. час дождь 10/8 360 м
[Frnb As trans]
+25.0 +25.0 100 +36 +36 очень
душно
1004.5 943.7 +23.2 18
06 16.09 штиль 0 10 км {дождь} 10/8 420 м
[Frnb As trans]
+25.6 +25.3 98 +37 +39 очень
душно
1003.9 943.3
09 16.09 штиль 0 10 км {дождь} 9/8 540 м
[Cb cap Ac trans]
+27.6 +26.5 94 +42 +45 опасность
перегрева
1000.7 940.8 1
12 16.09 штиль 0 10 км гроза, ливневой дождь 10/8 600 м
[Cb cap Ac trans]
+27.2 +25.8 92 +40 +40 очень
душно
1000.5 940.6 +28.6 1
15 16.09 штиль 0 2000 м гроза, ливневой дождь 10/8 360 м
[Cb cap As op]
+24.2 +23.9 98 +33 +33 очень
душно
1003.6 942.9 29
18 16.09 штиль 0 2000 м в посл. час дождь {гроза} 10/8 360 м
[Frnb As trans]
+24.0 +23.7 98 +33 +33 очень
душно
1004.2 943.2 31
21 16.09 штиль 0 2000 м в посл. час дождь 10/8 360 м
[Frnb As trans]
+23.8 +23.8 100 +32 +32 очень
душно
1002.4 941.5 34
00 17.09 штиль 0 2000 м {дождь} 10/8 360 м
[Frnb As trans]
+24.0 +24.0 100 +33 +33 очень
душно
1003.2 942.3 34
03 17.09 штиль 0 4000 м гроза, ливневой дождь 10/8 360 м
[Cb cap As op]
+25.4 +25.4 100 +37 +37 очень
душно
1004.9 944.3 +22.8 34
06 17.09 штиль 0 4000 м {гроза, дождь} 9/6 420 м
[Frnb Ac trans]
+28.6 +25.3 82 +42 +47 опасность
перегрева
1004.1 944.1 3
09 17.09 штиль 0 4000 м 10/6 360 м
[Frnb As trans]
+26.0 +24.9 94 +37 +40 очень
душно
1003.3 942.8 3
12 17.09 штиль 0 4000 м {дождь} 10/8 360 м
[Frnb As trans]
+25.2 +24.3 95 +35 +35 очень
душно
1002.8 942.3 +29.2 4
15 17.09 штиль 0 4000 м 6/4 600 м
[Sc Ac trans]
+24.6 +24.3 98 +34 +34 очень
душно
1004.9 944.1 4
18 17.09 штиль 0 4000 м 9/0
[Ac trans]
+24.6 +24.6 100 +34 +34 очень
душно
1005.1 944.3 4
21 17.09 штиль 0 4000 м 8/0
[Ac trans]
+24.4 +24.4 100 +34 +34 очень
душно
1004.7 943.9 4
00 18.09 штиль 0 2000 м дождь 10/8 360 м
[Cb cap As op]
+23.4 +23.4 100 +33 +33 очень
душно
1005.3 944.3 16
03 18.09 штиль 0 10 км {дождь} 8/6 600 м
[Cu Sc Ac trans]
+24.6 +24.6 100 +34 +37 очень
душно
1007.4 946.5 +22.0 18
06 18.09 штиль 0 4000 м слаб. дождь {гроза} 10/8 360 м
[Cb cap As op]
+24.2 +24.2 100 +33 +34 очень
душно
1008.9 947.8 3
09 18.09 штиль 0 10 км {дождь} 9/5 600 м
[Sc Ac trans]
+24.4 +24.1 98 +34 +38 очень
душно
1006.9 946.0 5
12 18.09 штиль 0 10 км {дождь} 5/0
[Ac trans]
+25.0 +23.6 92 +34 +35 очень
душно
1005.6 944.8 +25.7 5
15 18.09 штиль 0 4000 м 4/0
[Ac trans]
+23.4 +23.1 98 +33 +33 очень
душно
1008.6 947.3 5
18 18.09 штиль 0 4000 м 6/5 420 м
[Frnb Ac trans]
+23.8 +23.8 100 +32 +32 очень
душно
1009.2 947.9 5
21 18.09 штиль 0 4000 м 6/4 600 м
[Sc Ac trans]
+23.2 +23.2 100 +33 +33 очень
душно
1008.5 947.2 5
00 19.09 штиль 0 4000 м 8/5 420 м
[Frnb Ac trans]
+23.4 +23.4 100 +33 +33 очень
душно
1009.1 947.8 5
03 19.09 штиль 0 4000 м 10/8 360 м
[Frnb As trans]
+24.6 +24.3 98 +34 +35 очень
душно
1009.3 948.2 +22.2 5
06 19.09 штиль 0 10 км 9/6 540 м
[Cu Sc Ac trans]
+26.8 +24.0 85 +37 +42 очень
душно
1009.0 948.4
09 19.09 штиль 0 10 км гроза без осадков 9/6 540 м
[Cb cap Ac trans]
+25.8 +25.8 100 +38 +42 очень
душно
1006.6 945.9 7
12 19.09 штиль 0 10 км {гроза, дождь} 3/0
[Ac trans]
+26.8 +25.4 92 +39 +40 очень
душно
1005.8 945.3 +28.2 7
15 19.09 штиль 0 4000 м зарница 6/4 600 м
[Cb cap Ac trans]
+24.6 +23.7 95 +33 +33 очень
душно
1008.2 947.1 7
18 19.09 штиль 0 4000 м 8/5 600 м
[Sc Ac trans]
+24.0 +23.7 98 +33 +33 очень
душно
1008.5 947.2 7
21 19.09 штиль 0 4000 м 9/5 600 м
[Sc Ac trans]
+23.8 +23.8 100 +32 +32 очень
душно
1007.0 945.9 7
00 20.09 СВ 1 4000 м 9/5 600 м
[Sc Ac trans]
+24.0 +24.0 100 +33 +33 очень
душно
1007.2 946.1 7
03 20.09 штиль 0 4000 м 10/6 360 м
[Frnb As trans]
+24.6 +24.3 98 +34 +35 очень
душно
1009.2 948.1 +22.6 7
06 20.09 штиль 0 10 км 8/8 600 м
[Cu Sc]
+28.2 +24.9 82 +40 +45 очень
душно
1007.8 947.6
09 20.09 штиль 0 10 км 6/6 600 м
[Cu Sc]
+30.4 +24.9 72 +43 +50 опасность
перегрева
1004.3 944.7
12 20.09 штиль 0 10 км в посл. час гроза 8/5 600 м
[Cb cap Ac trans]
+28.0 +24.7 82 +40 +40 очень
душно
1004.3 944.1 +30.8
15 20.09 штиль 0 4000 м 1/0
[Ac trans]
+24.6 +23.2 92 +33 +33 очень
душно
1007.3 946.4
18 20.09 штиль 0 4000 м 4/0
[Ac trans]
+24.0 +23.4 96 +32 +32 очень
душно
1007.5 946.4
21 20.09 штиль 0 4000 м 4/0
[Ac trans]
+23.6 +23.3 98 +32 +32 очень
душно
1006.4 945.3
00 21.09 штиль 0 4000 м 5/3 600 м
[Sc Ac trans]
+23.4 +23.4 100 +33 +33 очень
душно
1006.8 945.7
03 21.09 штиль 0 10 км 8/4 420 м
[Frnb Ac trans]
+25.2 +23.8 92 +34 +37 очень
душно
1008.4 947.5 +22.0
06 21.09 штиль 0 10 км 6/6 600 м
[Cu Sc]
+29.6 +24.3 73 +41 +51 опасность
перегрева
1006.4 946.5
09 21.09 штиль 0 10 км {гроза, дождь} 6/6 600 м
[Cu Sc]
+29.2 +24.8 77 +42 +48 опасность
перегрева
1003.6 943.8 0.2
12 21.09 штиль 0 10 км {гроза, дождь} 9/0
[Ac trans]
+27.8 +24.4 82 +39 +40 очень
душно
1003.3 943.1 +30.7 0.2
15 21.09 штиль 0 4000 м 4/0
[Ac trans]
+26.4 +24.4 89 +37 +37 очень
душно
1006.0 945.5 0.2
18 21.09 штиль 0 4000 м гроза, ливневой дождь 10/8 360 м
[Cb cap As op]
+23.0 +22.1 95 +31 +31 очень
душно
1008.5 947.0 8
21 21.09 штиль 0 4000 м гроза, ливневой дождь 10/8 360 м
[Cb cap As op]
+22.2 +22.2 100 +30 +30 очень
душно
1007.9 946.6 38
00 22.09 штиль 0 4000 м дождь {гроза} 10/8 360 м
[Frnb As op]
+20.8 +20.8 100 +26 +26 душно 1008.5 946.7 85
03 22.09 штиль 0 10 км {дождь} 8/3 600 м
[Sc Ac trans]
+22.4 +22.4 100 +30 +33 очень
душно
1008.0 946.7 +19.6 87
06 22.09 штиль 0 10 км {дождь} 6/4 600 м
[Cu Sc Ac trans]
+27.2 +24.4 85 +38 +50 очень
душно
1008.4 948.0
09 22.09 штиль 0 10 км 6/4 600 м
[Cu Sc Ac trans]
+28.4 +23.9 77 +39 +47 очень
душно
1005.3 945.2

 

Местоположение метеостанции Сагар (Мадхья-Прадеш, Индия): широта 23.85 долгота 78.75 высота над уровнем моря 551 м.

В архиве по умолчанию представлена погода в Сагаре за последнюю неделю. Архивные данные за месяц целиком и за предыдущие месяцы, начиная с января 2011 года, Вы можете получить, выбрав интересующий диапазон дат из раскрывающегося списка и нажав кнопку "Ввод!".


*Определитесь, кто Вы:
робот инопланетянин человек

Внимание! Время в таблицах - всемирное. Для получения местного времени необходимо прибавить поправку, которая равна 5.5 ч.

Смотрите также архив погоды в соседних городах и на ближайших метеорологических станциях:

Погода в Дамо (Мадхья-Прадеш, Индия) (71 км)
Погода в Тикамгархе (Мадхья-Прадеш, Индия) (103 км)
Погода в Нарсингпуре (Мадхья-Прадеш, Индия) (109 км)
Погода в Райсене (Мадхья-Прадеш, Индия) (111 км)
Погода в Джабалпере (Мадхья-Прадеш, Индия) (142 км)
Погода в Ноугонге (Мадхья-Прадеш, Индия) (153 км)
Погода в Бхопале (Мадхья-Прадеш, Индия) (156 км)
Погода в Хошангабаде (Мадхья-Прадеш, Индия) (156 км)
Погода в Пачмарае (Мадхья-Прадеш, Индия) (157 км)
Погода в Гуне (Мадхья-Прадеш, Индия) (170 км)

Пояснения к столбцам:

Ветер - указаны скорость ветра в м/с - средняя за 10 мин, порывы в срок и между сроками (в фигурных скобках) и направление, откуда дует ветер: С - северный, СВ - северо-восточный, В - восточный, ЮВ - юго-восточный, Ю - южный, ЮЗ - юго-западный, З - западный, СЗ - северо-западный.
Видимость - горизонтальная дальность видимости в метрах или километрах. При видимости от 1 до 10 км при отсутствии осадков обычно наблюдается дымка, при ухудшении видимости до 1 км и менее - туман. В сухую погоду видимость может ухудшаться дымом, пылью или мглою.
Явления - указаны атмосферные явления, наблюдавшиеся в срок или в последний час перед сроком; фигурными скобками обозначены явления, наблюдавшиеся между сроками (за 1-3 часа до срока); квадратными скобками обозначены град или гололедные отложения с указанием их диаметра в мм.
Облачность - указаны через наклонную черту общая и нижняя облачность в баллах и высота нижней границы облаков в метрах; квадратными скобками обозначены формы облаков: Ci - перистые, Cs - перисто-слоистые, Cc - перисто-кучевые, Ac - высококучевые, As - высокослоистые, Sc - слоисто-кучевые, Ns - слоисто-дождевые, Cu - кучевые, Cb - кучево-дождевые. Подробнее классификацию облаков см. в Атласе облаков (PDF).
T - Температура воздуха - температура, измеренная на высоте 2 м над землей.
Td - Температура точки росы - температура, при понижении до которой содержащийся в воздухе водяной пар достигнет насыщения.
f - Относительная влажность воздуха - влажноcть воздуха, измеренная на высоте 2 м над землей.
Te - Эффективная температура - температура, которую ощущает одетый по сезону человек в тени. Характеристика душности погоды. При расчете учитывается влияние влажности воздуха и скорости ветра на теплоощущения человека.
Tes - Эффективная температура на солнце - температура, которую ощущает человек, с поправкой на солнечный нагрев. Характеристика знойности погоды. Зависит от высоты солнца над горизонтом, облачности и скорости ветра. Ночью, в пасмурную погоду, а также при ветре 12 м/с и более поправка равна нулю.
P - Атмосферное давление - приведенное к уровню моря атмосферное давление.
Po - Атмосферное давление - измеренное на уровне метеостанции атмосферное давление.
Tmin - Минимальная температура - минимум температуры воздуха на высоте 2 м над землей.
Tmax - Максимальная температура - максимум температуры воздуха на высоте 2 м над землей.
R - Количество осадков - Количество выпавших осадков за период времени, мм. При наведении курсора мыши на число - период времени, за который выпало указанное количество осадков.
R24 - Количество осадков - Количество выпавших осадков за 24 часа, мм.
S - Снежный покров - Высота снежного покрова, см. При наведении курсора мыши на число - состояние снежного покрова и степень покрытия местности в баллах.